RH
68 64 64 66 63 57 65 62 75 58 55 42 38 40 35 30 64 76 78 79 86 89 90 93 99 100 100 100 99 98 100 100 100 100 100 97 100 100 99 100 99 96 84 72
85 65 62 64 57 55 56 55 56 57 59 40 36 33 32 33 60 72 78 81 83 86 99 96 99 100 99 100 99 99 100 100 100 100 98 99 99 98 100 100 98 93 83 63
82 69 65 62 46 45 48 48 52 64 47 41 38 38 36 37 58 68 76 82 84 85 99 99 100 99 100 100 99 99 100 100 100 100 99 98 100 100 100 98 99 95 85 86
89 70 89 40 36 36 48 54 52 47 48 46 46 42 48 52 59 68 78 77 83 89 98 99 100 100 99 100 100 100 99 100 100 100 100 100 98 100 97 100 99 98 100 100
94 92 68 44 41 44 45 60 54 56 54 51 46 51 52 50 56 71 78 83 84 91 94 98 100 99 100 100 99 100 100 100 100 100 100 100 99 98 100 99 100 100 100 100
79 95 79 51 47 42 40 73 54 53 55 54 53 70 64 53 55 69 75 76 75 80 88 94 99 99 99 100 100 100 100 100 100 100 100 100 100 100 99 100 100 100 99 68
82 88 74 45 49 42 58 72 52 50 49 49 55 55 49 51 54 61 68 73 72 79 82 94 99 99 100 100 100 100 100 100 100 100 100 100 100 100 100 100 100 100 72 45
88 93 88 50 49 71 58 46 50 54 51 47 40 38 35 28 53 56 59 68 69 81 85 94 96 99 100 100 100 100 100 100 100 100 100 100 100 100 100 100 99 47 42 38
93 89 60 52 41 38 42 38 38 38 36 36 38 39 38 28 30 56 57 61 60 77 90 94 98 99 98 100 100 100 100 100 100 100 100 100 99 100 100 74 43 43 39 25
65 58 49 42 36 41 38 38 38 38 36 36 41 40 44 39 38 52 57 71 60 59 80 94 99 99 98 98 99 100 100 100 100 100 100 100 100 97 76 76 50 40 28 21
53 46 40 36 37 40 40 39 39 39 39 40 38 35 41 41 51 48 59 58 54 66 66 89 98 100 100 99 99 98 99 99 99 100 99 99 100 98 99 87 50 26 20 22
61 44 48 47 46 45 44 44 42 41 41 40 41 42 47 40 52 50 45 61 55 70 67 72 91 98 100 100 100 99 99 99 99 99 100 99 90 74 57 40 25 25 24 25
64 67 64 60 58 57 63 66 63 60 55 50 48 46 44 45 46 57 47 48 60 65 72 61 84 92 99 98 100 99 96 99 99 94 73 56 51 45 30 28 28 26 27 26
66 78 76 74 81 77 78 75 75 66 61 58 56 53 50 50 51 56 56 45 55 62 71 63 68 90 96 86 89 86 78 69 65 55 51 49 44 34 20 20 26 27 28 28
77 81 83 77 69 75 83 85 82 80 71 74 70 62 54 53 53 51 51 48 57 66 64 69 69 91 98 87 75 71 68 68 64 55 47 43 40 24 20 22 24 26 28 30
96 96 92 92 95 94 94 94 92 88 79 68 69 71 64 56 54 54 51 52 65 66 64 74 84 96 97 86 82 76 70 67 58 48 45 41 32 20 20 24 27 28 29 31
100 91 96 96 99 98 100 100 100 99 90 84 71 69 68 65 57 55 54 52 64 61 64 71 83 97 94 75 79 78 68 56 49 48 45 39 27 20 21 24 27 29 31 33
100 99 99 100 100 100 100 100 100 100 93 85 82 73 73 72 65 59 60 62 57 62 67 68 67 91 99 91 72 69 61 54 49 48 46 38 26 22 22 26 29 30 32 34
96 98 96 98 98 97 97 97 97 94 91 90 80 69 70 73 71 65 61 64 67 56 57 70 71 90 99 100 85 66 61 60 52 50 46 36 27 24 24 26 28 30 32 34
90 90 94 95 96 98 96 96 98 98 99 88 82 75 80 74 71 64 61 67 71 68 64 70 72 85 100 100 100 99 98 73 54 51 44 36 27 26 26 28 29 31 33 36
96 95 96 97 95 96 96 96 98 97 100 100 97 84 81 78 72 70 73 81 80 80 76 82 78 81 100 100 99 98 98 75 60 50 42 33 29 29 30 29 31 33 37 41
98 96 96 95 96 96 96 96 97 97 98 98 96 93 91 88 86 85 88 86 83 80 76 80 94 95 100 100 100 98 97 96 88 79 37 36 49 64 43 33 34 37 42 46
96 96 95 95 95 96 96 96 96 96 96 97 97 99 97 95 92 90 88 90 84 83 85 96 98 98 98 98 98 97 97 97 96 68 76 94 96 57 40 39 41 45 50 55
96 95 96 96 96 94 94 97 96 97 97 96 96 97 97 99 97 97 98 97 97 98 97 97 97 98 98 98 97 97 97 96 96 97 97 93 82 70 46 46 51 56 62 70
95 94 93 90 92 97 96 96 96 97 97 96 96 96 96 97 94 97 96 97 96 96 96 97 97 97 97 97 97 97 97 97 97 96 95 95 93 78 54 56 63 70 79 91
93 95 96 96 96 96 97 93 96 96 96 96 96 96 96 96 96 96 96 97 97 97 96 97 97 97 97 97 96 97 96 96 96 95 90 75 65 69 75 78 79 78 76 74
69 72 72 78 88 94 95 95 94 95 96 95 96 96 96 96 96 96 96 96 96 96 96 96 96 96 96 96 96 96 95 92 86 82 81 80 75 68 63 62 63 64 65 68
Wind_Speed
10 9 5 9 13 12 13 17 11 25 18 22 17 12 16 15 6 6 8 11 15 21 23 26 20 11 6 4 6 6 12 14 21 28 31 29 31 33 31 33 35 32 30 30
5 10 14 17 16 18 16 18 19 20 26 20 26 13 11 14 7 7 6 9 15 20 22 24 20 12 6 4 4 7 9 21 24 32 32 28 29 30 32 29 30 31 30 29
7 4 7 8 2 6 6 5 6 6 6 6 6 8 10 12 9 10 7 7 13 20 20 21 19 12 5 3 8 7 12 21 25 31 34 33 32 26 22 23 25 30 30 28
7 5 4 6 17 2 6 9 9 6 9 7 9 17 13 11 12 11 7 9 15 18 17 21 18 8 4 4 11 10 13 19 26 30 33 41 30 32 27 27 29 29 29 25
3 3 8 9 4 3 2 4 8 8 11 16 24 4 10 24 16 12 10 10 12 14 17 21 14 7 3 1 5 17 17 21 25 28 37 38 29 28 34 33 34 34 28 28
1 4 4 1 6 14 4 1 6 13 12 14 20 7 6 26 18 10 11 10 9 13 17 18 11 8 5 2 6 15 18 21 25 29 33 38 36 39 30 34 38 34 31 25
10 7 6 6 16 14 2 2 6 12 15 18 8 9 24 26 18 13 11 9 8 9 13 14 11 9 4 4 8 11 16 18 22 25 31 36 39 39 39 40 31 31 30 26
3 5 8 16 5 5 11 19 13 14 21 20 18 23 27 29 25 17 12 7 6 6 8 10 10 10 8 5 9 11 14 19 27 33 31 29 38 43 38 33 34 31 28 26
3 4 10 10 12 11 13 19 23 24 27 25 26 26 25 29 27 20 13 8 7 4 4 6 6 10 11 8 9 12 16 21 27 28 34 40 38 35 33 30 32 31 28 25
5 3 14 31 28 8 19 27 25 23 26 22 23 26 26 24 19 20 13 9 10 5 3 1 4 6 8 13 12 15 18 23 30 35 36 31 32 33 32 29 27 25 24 21
16 25 27 25 23 32 36 32 33 30 27 26 26 26 22 23 18 18 13 11 10 6 6 7 7 7 9 11 16 25 28 28 25 26 30 32 31 29 27 24 19 18 18 16
7 24 21 32 38 36 32 30 30 28 31 27 25 24 19 22 16 18 16 13 11 9 7 11 11 10 11 15 16 17 21 22 24 26 29 28 27 25 19 16 15 14 14 13
12 26 27 28 28 24 26 29 29 28 28 30 26 29 32 28 25 22 18 16 14 15 12 12 14 14 14 17 20 18 20 24 25 26 26 26 24 24 25 22 18 16 14 12
29 21 28 24 31 41 38 36 33 35 36 34 29 26 26 26 24 22 22 19 17 16 18 13 16 17 16 19 20 20 20 21 22 23 23 23 22 21 19 20 20 19 15 13
19 30 30 40 42 38 31 30 30 30 31 26 23 24 24 25 27 25 25 20 18 18 22 19 18 19 19 21 22 22 23 22 21 22 22 21 19 17 15 14 15 16 16 14
32 32 31 26 31 36 35 33 30 31 32 32 29 22 19 23 24 24 20 18 18 21 23 24 22 23 23 24 23 23 22 21 23 23 22 21 20 20 18 17 16 14 12 10
30 33 38 35 34 39 37 35 33 33 35 33 30 26 23 18 21 22 22 19 17 18 20 27 25 26 25 27 27 27 27 27 26 26 25 23 21 20 18 16 14 13 12 10
27 30 32 33 36 39 40 37 35 34 33 32 29 26 23 19 20 22 19 17 18 18 20 21 29 27 27 25 26 27 27 28 28 27 25 22 20 18 17 16 15 14 13 11
27 29 30 30 31 32 33 34 34 33 28 26 25 23 20 18 18 20 18 17 18 20 22 21 26 29 29 28 25 27 27 28 28 26 23 21 20 19 17 15 14 13 12 12
29 27 26 27 26 26 27 26 26 19 16 15 14 15 14 12 15 17 17 17 17 19 18 18 25 31 31 30 29 29 26 25 26 25 24 22 20 18 16 15 14 13 13 12
28 27 25 26 26 26 23 20 11 11 5 5 5 6 7 11 13 12 11 12 14 14 14 18 23 29 29 28 29 26 24 25 24 23 22 20 18 15 14 14 14 13 12 11
27 26 25 25 25 25 24 21 17 13 10 7 4 1 3 4 5 6 7 9 11 13 15 17 21 25 28 24 27 29 24 23 23 20 18 17 15 14 15 14 13 12 10 9
27 26 24 25 25 24 24 25 23 22 19 17 14 11 7 5 4 2 6 6 7 10 12 15 19 21 22 20 24 26 24 24 21 20 21 19 13 12 12 12 11 10 9 10
25 27 28 28 27 28 30 27 26 25 23 21 21 19 20 19 18 17 13 10 9 10 13 14 16 19 20 22 22 22 23 22 21 19 16 12 12 12 11 11 10 10 11 11
23 24 27 29 33 34 33 32 31 31 28 27 26 25 23 23 24 22 20 21 20 21 20 16 16 18 19 20 19 18 17 16 16 13 11 10 9 11 13 12 11 12 12 12
20 22 25 25 27 29 29 30 33 32 32 32 30 28 27 26 24 23 23 23 24 23 24 22 20 19 19 18 16 15 13 11 9 8 7 9 11 10 10 10 10 11 12 13
17 19 20 22 24 25 25 26 27 28 27 26 27 26 26 25 25 25 25 25 24 24 23 22 20 18 16 14 12 10 9 8 8 8 7 7 7 8 9 10 10 11 11 12
Wind_Direction
274 298 297 288 280 270 246 251 244 266 271 276 289 288 285 304 253 275 321 328 340 338 346 350 347 329 310 232 219 244 238 216 202 187 189 177 178 176 177 187 185 184 177 172
288 290 286 281 280 270 266 262 257 259 271 282 279 281 305 319 270 283 312 321 338 329 341 350 349 343 333 231 207 222 229 204 191 190 182 181 184 183 184 177 176 175 171 170
292 310 306 283 263 272 228 243 234 228 271 333 332 314 321 331 319 309 304 326 328 329 338 349 348 353 353 201 191 199 226 199 193 193 180 183 188 181 168 172 184 174 167 172
288 9 252 254 322 309 98 35 1 354 356 354 339 329 356 6 350 340 307 328 324 327 343 349 343 340 17 46 191 184 203 202 193 195 189 179 176 182 182 182 174 170 167 169
264 272 289 298 23 343 335 29 6 6 359 0 4 56 36 360 350 337 331 330 330 337 348 348 344 357 358 202 177 189 186 191 187 196 185 171 176 180 183 169 166 163 167 162
244 262 263 229 322 323 273 75 357 21 3 4 28 28 319 343 341 332 322 332 337 347 356 354 6 15 10 148 168 182 177 182 185 182 183 178 180 170 173 170 163 166 157 151
229 253 276 294 319 321 263 325 20 40 27 19 25 355 356 355 349 334 322 326 346 355 8 13 29 29 37 114 155 166 170 177 173 174 171 171 171 169 167 160 167 152 150 159
203 230 261 353 352 39 349 346 337 21 10 356 1 348 347 353 351 337 326 314 342 353 19 31 51 43 45 119 139 154 168 168 163 163 167 173 166 156 156 160 149 152 156 159
273 255 299 15 345 353 1 3 355 346 344 344 337 340 339 339 343 338 324 320 336 339 18 48 79 64 62 102 131 149 161 163 163 162 159 154 154 155 149 150 155 159 164 162
315 288 312 310 316 317 342 321 325 323 317 324 324 330 330 334 328 328 323 301 304 328 285 155 156 105 96 92 127 147 150 151 151 151 152 155 154 145 151 156 161 163 166 165
281 280 293 296 300 311 312 310 309 310 312 314 308 306 312 321 321 321 320 308 269 251 265 214 188 178 156 141 138 135 139 144 152 159 158 157 156 155 152 156 170 169 165 164
274 304 299 290 302 306 310 312 310 308 308 305 306 295 298 296 299 298 317 306 265 244 243 239 203 209 195 174 166 166 165 164 164 162 158 151 150 153 160 165 160 159 157 158
303 319 313 311 309 313 313 312 311 310 305 301 290 284 290 290 283 284 291 298 278 249 237 243 215 200 206 190 186 187 175 168 166 165 161 162 162 163 161 161 162 163 161 158
314 317 311 308 307 308 309 308 305 298 295 292 290 291 282 278 282 278 277 289 284 255 235 229 222 205 213 198 193 195 192 182 175 172 171 171 174 175 177 171 168 164 166 173
312 313 302 302 304 307 309 309 306 300 295 302 295 291 283 274 273 276 273 281 273 252 230 218 220 205 208 209 200 196 197 193 187 182 181 182 180 179 179 180 180 180 179 176
315 313 310 305 303 304 307 305 299 297 296 291 283 285 290 285 278 276 272 272 257 244 230 215 214 216 208 212 203 201 201 198 193 188 187 186 187 189 188 188 187 186 184 184
322 320 319 314 310 308 304 299 292 287 289 285 282 283 280 283 277 269 269 263 253 258 252 228 214 213 210 213 208 202 198 197 197 195 196 194 193 193 193 192 192 190 191 194
322 319 319 314 310 308 305 302 296 292 288 282 278 278 277 272 273 274 270 267 252 247 250 239 219 214 207 204 205 201 199 198 196 197 198 196 196 195 195 193 191 194 199 203
338 332 330 328 329 319 313 309 303 297 286 276 266 265 274 267 268 269 271 264 248 242 240 233 219 213 211 199 204 199 199 200 199 197 197 195 195 197 196 195 197 201 207 217
345 343 340 342 340 338 329 324 311 297 277 262 261 267 269 261 266 267 267 260 246 241 236 227 215 215 209 197 197 198 199 205 202 196 197 197 196 197 197 201 207 210 215 221
353 353 353 359 359 3 359 356 13 3 353 304 290 273 254 265 260 256 258 246 233 224 217 214 214 210 209 206 196 203 195 196 196 196 197 194 194 195 203 210 213 215 218 224
5 6 6 11 15 21 27 33 41 46 55 71 85 105 253 248 244 234 215 219 209 202 203 201 204 205 204 202 200 191 182 188 186 190 193 188 191 203 214 213 214 218 224 233
22 24 24 26 29 33 41 48 54 60 62 63 66 62 58 77 92 170 168 162 189 178 182 189 193 194 192 193 183 172 174 177 178 182 187 199 194 208 214 217 216 221 231 241
30 35 40 44 46 49 49 51 58 62 69 77 82 91 98 101 99 96 98 105 125 139 146 157 165 169 175 172 166 166 170 173 179 191 185 172 192 205 211 216 222 227 236 246
37 38 41 46 49 49 57 60 65 68 71 76 81 86 92 98 101 108 116 118 122 123 122 132 139 145 148 150 153 158 162 168 166 160 163 178 195 217 224 229 235 241 246 252
39 40 44 44 48 52 53 59 61 63 69 71 74 79 84 88 93 97 100 104 107 110 112 116 121 127 130 132 135 135 134 137 143 152 170 196 209 223 236 246 253 258 264 267
44 45 47 46 44 48 50 52 55 58 59 66 70 71 75 80 84 87 89 91 93 95 99 101 103 106 108 111 116 119 127 145 163 183 198 217 235 248 258 264 268 269 269 271